Location: Ingoldesthorpe
(52.8667°N, 0.5167°E)
Time: 21:09:12
(UTC+00:00)

Cosmos 1400 Rocket - Pass Details

Date: 19 May 2025
Orbit: 484 x 519 km, 81.1° (Epoch: 18 June)

Event Time Altitude Azimuth Distance (km) Brightness Sun altitude
Rises 21:06:12 0° 204° (SSW) 2,558 6.0 -8.6°
Reaches altitude 10° 21:08:20 10° 209° (SSW) 1,677 5.1 -8.8°
Maximum altitude 21:11:56 52° 287° (WNW) 618 3.5 -9.1°
Drops below altitude 10° 21:15:32 10° 5° (N) 1,682 6.1 -9.4°
Sets 21:17:41 0° 10° (N) 2,567 6.9 -9.6°
